Location: American Medical Response
(33.3472°N, 96.5511°W)
Time: 11:58:00
(UTC+00:00)

Cosmos 1805 Rocket - Pass Details

Date: 04 July 2022
Orbit: 605 x 629 km, 82.5° (Epoch: 09 August)

Event Time Altitude Azimuth Distance (km) Brightness Sun altitude
Exits shadow 10:38:16 11° 243° (WSW) 1,948 5.4 -8.6°
Maximum altitude 10:41:04 18° 284° (WNW) 1,551 5.2 -8.1°
Drops below altitude 10° 10:44:03 10° 327° (NNW) 1,990 6.2 -7.6°
Sets 10:46:56 0° 347° (NNW) 2,895 7.3 -7.1°
